Location: L�dingen
(68.4070°N, 15.9920°E)
Time: 02:23:29
(UTC+02:00)

N. Korean satellite - Visible Passes

Search period start: 21 October 2019 00:00
Search period end: 30 October 2019 23:00
Orbit: 455 x 508 km, 97.2° (Epoch: 20 October)

Date Brightness Start Highest point End Pass type
(mag) Time Alt. Az. Time Alt. Az. Time Alt. Az.
21 Oct 9.2 06:17:40 10° NE 06:20:42 25° E 06:23:45 10° SSE visible
21 Oct 9.3 18:40:39 10° SSW 18:43:34 24° W 18:46:30 10° NW visible
22 Oct 9.8 05:52:35 10° NE 05:55:08 18° E 05:57:41 10° SE visible
22 Oct 7.0 07:25:34 10° NNE 07:29:10 70° ESE 07:32:48 10° SSW visible
22 Oct 8.5 18:14:49 10° SSW 18:18:02 35° W 18:21:20 10° NNW visible
23 Oct 10.2 05:27:47 10° NE 05:29:30 13° E 05:31:13 10° ESE visible
23 Oct 7.8 07:00:16 10° NNE 07:03:46 47° ESE 07:07:18 10° S visible
23 Oct 7.6 17:49:10 10° S 17:52:35 52° WSW 17:56:05 10° NNW visible
23 Oct 10.1 19:25:00 10° WSW 19:26:49 14° W 19:28:40 10° NW visible
24 Oct 8.7 06:35:01 10° NNE 06:38:19 32° E 06:41:37 10° SSE visible
24 Oct 9.7 18:58:36 10° SW 19:01:11 19° W 19:03:49 10° NW visible
25 Oct 9.4 06:09:50 10° NE 06:12:46 23° E 06:15:44 10° SE visible
25 Oct 9.0 18:32:34 10° SSW 18:35:37 27° W 18:38:43 10° NNW visible
26 Oct 9.9 05:44:48 10° NE 05:47:11 16° E 05:49:35 10° SE visible
26 Oct 7.2 07:17:40 10° NNE 07:21:17 62° ESE 07:24:55 10° S visible
26 Oct 8.2 18:06:47 10° S 18:10:07 39° W 18:13:30 10° NNW visible
26 Oct 10.4 19:43:40 10° W 19:44:31 11° WNW 19:45:22 10° WNW visible
27 Oct 10.3 04:20:08 10° NE 04:21:32 12° ENE 04:22:54 10° E visible
27 Oct 8.1 05:52:22 10° NNE 05:55:51 42° E 05:59:23 10° S visible
27 Oct 7.3 16:41:11 10° S 16:44:40 59° WSW 16:48:13 10° NNW visible
27 Oct 10.0 18:16:40 10° WSW 18:18:49 15° W 18:21:00 10° NW visible
28 Oct 8.9 05:27:07 10° NNE 05:30:22 29° E 05:33:38 10° SSE visible
28 Oct 9.5 17:50:25 10° SW 17:53:12 21° W 17:56:02 10° NW visible
29 Oct 9.5 05:01:58 10° NE 05:04:49 21° E 05:07:41 10° SE visible
29 Oct 6.8 06:35:05 10° NNE 06:38:45 82° ESE 06:42:27 10° SSW visible
29 Oct 8.7 17:24:27 10° SSW 17:27:38 30° W 17:30:53 10° NNW visible
30 Oct 10.0 04:36:59 10° NE 04:39:11 15° E 04:41:24 10° ESE visible
30 Oct 7.5 06:09:44 10° NNE 06:13:21 55° ESE 06:17:01 10° S visible
30 Oct 7.9 16:58:44 10° S 17:02:09 45° W 17:05:38 10° NNW visible
30 Oct 10.2 18:35:00 10° WSW 18:36:29 12° WNW 18:37:59 10° NW visible
